Weather History for Trapani, Italy

Change the Weather History Date:

Tuesday, November 13, 2012

  Actual Average Record
Temperature  
Mean Temperature 70 °F -  
Max Temperature 76 °F 64 °F 76 °F (2012)
Min Temperature 63 °F 52 °F 46 °F (2011)
Cooling Degree Days 4    
Growing Degree Days 20 (Base 50)    
Moisture  
Dew Point 62 °F    
Average Humidity 78    
Maximum Humidity 88    
Minimum Humidity 57    
Precipitation  
Precipitation 0.00 in 0.09 in - ()
Sea Level Pressure  
Sea Level Pressure 30.09 in    
Wind  
Wind Speed 6 mph ()    
Max Wind Speed 18 mph    
Max Gust Speed -    
Visibility 7.1 miles    
Events      
Averages and records for this station are not official NWS values.
T = Trace of Precipitation, MM = Missing Value Source: Averaged Metar Reports

Daily Weather History Graph

Daily Weather History Graph

Search for Another Location

Airport:

Trip Planner

Search our weather history database for the weather conditions in past years. The results will help you decide how hot, cold, wet, or windy it might be!

Date:

Astronomy

Nov. 13, 2012 Rise Set
Actual Time 6:48 AM CET 4:59 PM CET
Civil Twilight 6:20 AM CET 5:27 PM CET
Nautical Twilight 5:48 AM CET 5:59 PM CET
Astronomical Twilight 5:17 AM CET 6:30 PM CET
Moon 6:06 AM CET (11/13) 4:38 PM CET (11/13)
Length of Visible Light 11h 06m
Length of Day
10h 11m
Waning Crescent, 0% of the Moon is Illuminated
Nov 13
Waning Crescent
Nov 13
New
Nov 20
First Quarter
Nov 28
Full
Dec 6
Last Quarter

Hourly Weather History & Observations

Time (CET) Temp. Dew Point Humidity Pressure Visibility Wind Dir Wind Speed Gust Speed Precip Events Conditions
12:55 AM 68.0 °F 62.6 °F 83% 30.09 in - East 5.8 mph - N/A   Clear
1:00 AM 68 °F 63 °F 78% 30.11 in 7 mi East 5.8 mph - -  
1:55 AM 68.0 °F 62.6 °F 83% 30.09 in - East 6.9 mph - N/A   Clear
2:55 AM 64.4 °F 60.8 °F 88% 30.06 in - East 1.2 mph - N/A   Clear
3:55 AM 64.4 °F 60.8 °F 88% 30.06 in - East 2.3 mph - N/A   Clear
4:55 AM 64.4 °F 59.0 °F 83% 30.06 in - East 4.6 mph - N/A   Clear
5:55 AM 64.4 °F 60.8 °F 88% 30.09 in - Calm Calm - N/A   Clear
6:55 AM 66.2 °F 60.8 °F 83% 30.09 in - East 5.8 mph - N/A   Clear
7:00 AM 65 °F 61 °F 82% 30.11 in 9 mi East 5.8 mph - -   Clear
7:55 AM 66.2 °F 60.8 °F 83% 30.12 in - East 1.2 mph - N/A   Clear
8:55 AM 69.8 °F 62.6 °F 78% 30.09 in - ESE 8.1 mph - N/A   Clear
9:55 AM 73.4 °F 62.6 °F 69% 30.12 in - ESE 5.8 mph - N/A   Clear
10:55 AM 73.4 °F 60.8 °F 65% 30.12 in - SE 10.4 mph - N/A   Clear
11:55 AM 75.2 °F 60.8 °F 61% 30.09 in - SE 17.3 mph - N/A   Clear
12:55 PM 75.2 °F 62.6 °F 65% 30.06 in 6.2 mi SSE 18.4 mph - N/A   Partly Cloudy
1:00 PM 76 °F 64 °F 57% 30.09 in 16 mi SSE 18.4 mph - -   Scattered Clouds
1:55 PM 75.2 °F 64.4 °F 69% 30.06 in 6.2 mi SSE 17.3 mph - N/A   Partly Cloudy
2:55 PM 73.4 °F 66.2 °F 78% 30.09 in 6.2 mi SE 15.0 mph - N/A   Partly Cloudy
3:55 PM 73.4 °F 64.4 °F 73% 30.06 in 6.2 mi SE 11.5 mph - N/A   Partly Cloudy
4:55 PM 69.8 °F 64.4 °F 83% 30.06 in 6.2 mi SE 8.1 mph - N/A   Partly Cloudy
5:55 PM 68.0 °F 62.6 °F 83% 30.09 in 6.2 mi East 2.3 mph - N/A   Scattered Clouds
6:55 PM 68.0 °F 62.6 °F 83% 30.09 in 6.2 mi ESE 8.1 mph - N/A   Mostly Cloudy
7:55 PM 68.0 °F 62.6 °F 83% 30.09 in 6.2 mi SE 5.8 mph - N/A   Scattered Clouds
8:55 PM 68.0 °F 62.6 °F 83% 30.12 in 6.2 mi SE 6.9 mph - N/A   Scattered Clouds
9:55 PM 68.0 °F 62.6 °F 83% 30.12 in 6.2 mi SE 6.9 mph - N/A   Scattered Clouds
10:55 PM 66.2 °F 59.0 °F 78% 30.12 in 6.2 mi SE 11.5 mph - N/A   Scattered Clouds
11:55 PM 64.4 °F 59.0 °F 83% 30.12 in 6.2 mi ESE 6.9 mph - N/A   Scattered Clouds